Location: Prairie State College
(41.5244°N, 87.6382°W)
Time: 18:56:34
(UTC-05:00)

MSX - Visible Passes

Search period start: 30 September 2014 00:00
Search period end: 10 October 2014 00:00
Orbit: 895 x 906 km, 98.8° (Epoch: 27 September)

Date Brightness Start Highest point End Pass type
(mag) Time Alt. Az. Time Alt. Az. Time Alt. Az.
30 Sep 4.4 19:48:32 19° ESE 19:52:01 36° ENE 19:57:12 10° N visible
30 Sep 5.2 21:31:37 26° SW 21:33:42 34° W 21:38:53 10° NNW visible
01 Oct 4.4 19:51:35 21° ESE 19:54:49 38° ENE 20:00:05 10° N visible
01 Oct 5.3 21:34:39 26° SW 21:36:33 32° W 21:41:40 10° NNW visible
02 Oct 4.3 19:54:37 23° ESE 19:57:38 40° ENE 20:02:58 10° N visible
02 Oct 5.4 21:37:42 26° SW 21:39:24 30° W 21:44:25 10° NW visible
03 Oct 4.2 19:57:40 26° ESE 20:00:26 42° ENE 20:05:50 10° N visible
03 Oct 5.5 21:40:45 25° WSW 21:42:15 28° W 21:47:11 10° NW visible
04 Oct 4.1 20:00:43 28° ESE 20:03:15 44° ENE 20:08:42 10° N visible
04 Oct 5.5 21:43:47 25° WSW 21:45:07 27° W 21:49:56 10° NW visible
05 Oct 4.1 20:03:46 31° ESE 20:06:04 47° ENE 20:11:34 10° N visible
05 Oct 5.6 21:46:50 24° WSW 21:47:58 25° W 21:52:40 10° NW visible
06 Oct 4.0 20:06:48 34° ESE 20:08:53 50° ENE 20:14:25 10° N visible
06 Oct 5.7 21:49:53 23° WSW 21:50:50 24° W 21:55:25 10° NW visible
07 Oct 3.9 20:09:51 38° ESE 20:11:42 52° ENE 20:17:17 10° N visible
07 Oct 5.8 21:52:56 22° WSW 21:53:41 23° W 21:58:08 10° NW visible
08 Oct 3.9 20:12:54 42° ESE 20:14:31 55° ENE 20:20:08 10° N visible
08 Oct 5.8 21:55:58 21° W 21:56:33 21° W 22:00:51 10° NW visible
09 Oct 3.8 20:15:57 46° ESE 20:17:20 59° ENE 20:22:59 10° N visible
09 Oct 5.9 21:59:01 20° W 21:59:25 20° W 22:03:34 10° NW visible
